Flag for China Weather past 2 weeks in Suzhou, Jiangsu, China

Now
37 °F

Passing clouds.


Feels Like: 31 °F
Forecast: 35 / 42 °F
Wind: 8 mph from North

Location: Shanghai Hongqiao Airport

Current Time: Jan 28, 2015 at 7:03:05 AM

Latest Report: Jan 28, 2015 at 6:30 AM


Visibility: N/A

Pressure: 30.39 "Hg

Humidity: 75%

Dew point: 30 °F

Location of SuzhouLocation

Historic Weather in Suzhou — Graph

°F

Suzhou temperature yesterday

Maximum temperature yesterday: 46 °F (at 12:00 AM)
Minimum temperature yesterday: 34 °F (at 10:00 PM)
Average temperature yesterday: 41 °F

Past Weeks' High & Low Weather Summary

 TemperatureHumidityPressure
High61 °F (Jan 24, 1:00 PM)100% (Jan 13, 11:00 PM)30.57 "Hg (Jan 13, 11:00 PM)
Low32 °F (Jan 23, 6:30 AM)24% (Jan 19, 2:30 PM)30.07 "Hg (Jan 21, 2:30 PM)
Average45 °F73%30.28 "Hg
* Reported Jan 13 6:00 AM — Jan 28 6:00 AM, Suzhou, Weather by CustomWeather, © 2014

Note: Actual official high and low records may vary slightly from our data, if they occured in-between our weather recording intervals... More about our weather records

Advertising

Suzhou weather history for previous 24 hours

 ConditionsComfort  
Time TempWeatherWind HumidityBarometerVisibility
6:00 AM
Jan 28
37 °FPassing clouds.13 mph75%30.39 "HgN/A
5:30 AM36 °FPassing clouds.13 mph81%30.39 "HgN/A
5:00 AM36 °FPassing clouds.15 mph75%30.39 "HgN/A
4:30 AM36 °FPassing clouds.15 mph81%30.39 "HgN/A
4:00 AM36 °FPassing clouds.15 mph75%30.39 "HgN/A
3:30 AM36 °FPassing clouds.15 mph81%30.42 "HgN/A
3:00 AM36 °FPassing clouds.13 mph81%30.42 "HgN/A
2:30 AM36 °FPassing clouds.13 mph81%30.39 "HgN/A
2:00 AM36 °FPassing clouds.15 mph81%30.42 "HgN/A
1:30 AM36 °FClear.15 mph81%30.39 "Hg10 mi
1:00 AM36 °FClear.13 mph87%30.39 "Hg10 mi
12:30 AM34 °FPassing clouds.3 mph100%30.39 "Hg5 mi
12:00 AM34 °FLight snow. Fog.3 mph93%30.39 "Hg3 mi
11:30 PM
Jan 27
34 °FLight snow. Fog.6 mph93%30.39 "Hg2 mi
11:00 PM34 °FLight snow. Fog.6 mph93%30.39 "Hg2 mi
10:30 PM34 °FLight snow. Passing clouds.8 mph93%30.42 "Hg4 mi
10:00 PM34 °FLight snow. Passing clouds.6 mph93%30.42 "Hg4 mi
9:30 PM36 °FLight snow. Passing clouds.10 mph87%30.42 "Hg4 mi
9:00 PM36 °FLight rain. Passing clouds.13 mph81%30.42 "HgN/A
8:30 PM36 °FPassing clouds.13 mph87%30.42 "HgN/A
8:00 PM37 °FPassing clouds.13 mph81%30.39 "HgN/A
7:30 PM37 °FPassing clouds.15 mph75%30.39 "HgN/A
7:00 PM37 °FPassing clouds.13 mph75%30.39 "HgN/A
6:30 PM37 °FLight rain. Passing clouds.13 mph81%30.39 "HgN/A
6:00 PM37 °FPassing clouds.13 mph81%30.39 "HgN/A
5:30 PM37 °FPassing clouds.15 mph81%30.39 "HgN/A
5:00 PM37 °FPartly sunny.10 mph87%30.36 "HgN/A
4:30 PM37 °FLight rain. Partly sunny.15 mph81%30.36 "HgN/A
4:00 PM39 °FPartly sunny.15 mph70%30.36 "HgN/A
3:30 PM41 °FPartly sunny.15 mph66%30.36 "HgN/A
3:00 PM41 °FPartly sunny.17 mph70%30.36 "HgN/A
2:30 PM41 °FPartly sunny.17 mph70%30.33 "HgN/A
2:00 PM43 °FPartly sunny.15 mph66%30.33 "HgN/A
1:30 PM43 °FPartly sunny.15 mph71%30.33 "HgN/A
1:00 PM43 °FPartly sunny.17 mph71%30.33 "HgN/A
12:30 PM43 °FPartly sunny.17 mph71%30.36 "Hg4 mi
12:00 PM43 °FPartly sunny.17 mph76%30.36 "Hg4 mi
11:30 AM43 °FPartly sunny.17 mph71%30.36 "Hg4 mi
11:00 AM43 °FFog.15 mph76%30.36 "Hg3 mi
10:30 AM45 °FFog.13 mph76%30.36 "Hg2 mi
10:00 AM43 °FFog.13 mph81%30.36 "Hg2 mi
9:30 AM43 °FFog.10 mph81%30.36 "Hg2 mi
9:00 AM43 °FLight rain. Fog.13 mph87%30.36 "Hg2 mi
8:30 AM43 °FLight rain. Fog.15 mph87%30.36 "Hg2 mi
8:00 AM43 °FLight rain. Fog.13 mph87%30.36 "Hg3 mi
7:30 AM45 °FPartly sunny.13 mph81%30.36 "Hg4 mi
7:00 AM45 °FLight rain. Partly sunny.10 mph81%30.33 "Hg4 mi
Weather by CustomWeather, © 2014

See weather overviewHow to use our weather pages